TimeEDT,TemperatureF,Dew PointF,Humidity,Sea Level PressureIn,VisibilityMPH,Wind Direction,Wind SpeedMPH,Gust SpeedMPH,PrecipitationIn,Events,Conditions,WindDirDegrees,DateUTC
12:15 AM,32.0,28.4,87,30.56,10.0,Calm,Calm,-,N/A,,Clear,0,2014-04-17 04:15:00
12:33 AM,32.0,28.4,87,30.57,10.0,Calm,Calm,-,N/A,,Clear,0,2014-04-17 04:33:00
12:54 AM,32.0,28.4,87,30.57,10.0,Calm,Calm,-,N/A,,Clear,0,2014-04-17 04:54:00
1:15 AM,30.2,28.4,93,30.57,10.0,Calm,Calm,-,N/A,,Clear,0,2014-04-17 05:15:00
1:33 AM,30.2,28.4,93,30.57,10.0,Calm,Calm,-,N/A,,Clear,0,2014-04-17 05:33:00
3:33 AM,30.2,28.4,93,30.58,10.0,Calm,Calm,-,N/A,,Clear,0,2014-04-17 07:33:00
3:54 AM,28.4,26.6,93,30.58,10.0,Calm,Calm,-,N/A,,Clear,0,2014-04-17 07:54:00
4:15 AM,30.2,28.4,93,30.59,10.0,Calm,Calm,-,N/A,,Clear,0,2014-04-17 08:15:00
4:36 AM,30.2,28.4,93,30.59,10.0,Calm,Calm,-,N/A,,Clear,0,2014-04-17 08:36:00
4:54 AM,30.2,28.4,93,30.60,10.0,Calm,Calm,-,N/A,,Clear,0,2014-04-17 08:54:00
5:15 AM,30.2,28.4,93,30.60,10.0,Calm,Calm,-,N/A,,Clear,0,2014-04-17 09:15:00
5:36 AM,28.4,28.4,100,30.60,10.0,Calm,Calm,-,N/A,,Clear,0,2014-04-17 09:36:00
5:54 AM,30.2,28.4,93,30.61,10.0,Calm,Calm,-,N/A,,Clear,0,2014-04-17 09:54:00
6:15 AM,28.4,28.4,100,30.62,10.0,Calm,Calm,-,N/A,,Clear,0,2014-04-17 10:15:00
6:36 AM,30.2,28.4,93,30.63,10.0,Calm,Calm,-,N/A,,Clear,0,2014-04-17 10:36:00
6:54 AM,30.2,28.4,93,30.64,10.0,Calm,Calm,-,N/A,,Clear,0,2014-04-17 10:54:00
7:15 AM,30.2,28.4,93,30.65,10.0,Calm,Calm,-,N/A,,Clear,0,2014-04-17 11:15:00
7:36 AM,32.0,30.2,93,30.66,10.0,Calm,Calm,-,N/A,,Clear,0,2014-04-17 11:36:00
7:54 AM,33.8,32.0,93,30.66,10.0,ENE,3.5,-,N/A,,Clear,70,2014-04-17 11:54:00
8:15 AM,39.2,30.2,70,30.66,10.0,ENE,6.9,-,N/A,,Clear,70,2014-04-17 12:15:00
8:36 AM,41.0,30.2,65,30.67,10.0,ENE,6.9,-,N/A,,Clear,70,2014-04-17 12:36:00
8:54 AM,42.8,30.2,61,30.67,10.0,ESE,9.2,-,N/A,,Clear,110,2014-04-17 12:54:00
9:15 AM,42.8,30.2,61,30.68,10.0,ESE,9.2,16.1,N/A,,Clear,120,2014-04-17 13:15:00
9:36 AM,44.6,30.2,57,30.68,10.0,East,8.1,-,N/A,,Clear,100,2014-04-17 13:36:00
9:54 AM,46.4,28.4,50,30.68,10.0,East,11.5,-,N/A,,Clear,100,2014-04-17 13:54:00
10:15 AM,46.4,28.4,50,30.69,10.0,ESE,12.7,-,N/A,,Clear,120,2014-04-17 14:15:00
10:36 AM,46.4,30.2,53,30.68,10.0,SE,5.8,9.2,N/A,,Clear,140,2014-04-17 14:36:00
10:54 AM,48.2,30.2,50,30.69,10.0,East,10.4,-,N/A,,Scattered Clouds,80,2014-04-17 14:54:00
11:15 AM,46.4,30.2,53,30.68,10.0,East,10.4,-,N/A,,Scattered Clouds,90,2014-04-17 15:15:00
11:36 AM,48.2,32.0,54,30.68,10.0,SSE,5.8,17.3,N/A,,Scattered Clouds,150,2014-04-17 15:36:00
12:15 PM,50.0,32.0,50,30.67,10.0,ENE,8.1,-,N/A,,Overcast,70,2014-04-17 16:15:00
12:36 PM,48.2,32.0,54,30.66,10.0,ESE,11.5,16.1,N/A,,Mostly Cloudy,110,2014-04-17 16:36:00
1:15 PM,50.0,32.0,50,30.65,10.0,ENE,9.2,-,N/A,,Mostly Cloudy,70,2014-04-17 17:15:00
1:36 PM,50.0,32.0,50,30.65,10.0,East,6.9,16.1,N/A,,Scattered Clouds,90,2014-04-17 17:36:00
1:57 PM,51.8,32.0,47,30.64,10.0,East,10.4,17.3,N/A,,Mostly Cloudy,80,2014-04-17 17:57:00
2:15 PM,50.0,32.0,50,30.64,10.0,NE,5.8,16.1,N/A,,Mostly Cloudy,50,2014-04-17 18:15:00
2:36 PM,50.0,32.0,50,30.63,10.0,ESE,9.2,-,N/A,,Scattered Clouds,110,2014-04-17 18:36:00
2:57 PM,51.8,32.0,47,30.63,10.0,East,11.5,-,N/A,,Clear,90,2014-04-17 18:57:00
3:15 PM,51.8,32.0,47,30.62,10.0,East,11.5,-,N/A,,Scattered Clouds,100,2014-04-17 19:15:00
3:36 PM,51.8,32.0,47,30.61,10.0,ESE,10.4,-,N/A,,Clear,120,2014-04-17 19:36:00
3:57 PM,51.8,32.0,47,30.60,10.0,East,12.7,18.4,N/A,,Clear,100,2014-04-17 19:57:00
4:15 PM,51.8,32.0,47,30.60,10.0,East,11.5,18.4,N/A,,Clear,90,2014-04-17 20:15:00
4:36 PM,50.0,32.0,50,30.60,10.0,ESE,10.4,17.3,N/A,,Clear,110,2014-04-17 20:36:00
4:57 PM,50.0,32.0,50,30.60,10.0,ENE,10.4,-,N/A,,Clear,70,2014-04-17 20:57:00
5:15 PM,50.0,32.0,50,30.60,10.0,East,9.2,21.9,N/A,,Clear,90,2014-04-17 21:15:00
5:36 PM,50.0,32.0,50,30.59,10.0,ENE,11.5,17.3,N/A,,Clear,70,2014-04-17 21:36:00
5:57 PM,50.0,32.0,50,30.60,10.0,East,11.5,16.1,N/A,,Clear,100,2014-04-17 21:57:00
6:15 PM,48.2,30.2,50,30.60,10.0,ESE,9.2,-,N/A,,Clear,110,2014-04-17 22:15:00
6:36 PM,48.2,32.0,54,30.60,10.0,East,9.2,-,N/A,,Clear,100,2014-04-17 22:36:00
6:57 PM,46.4,32.0,57,30.60,10.0,East,11.5,-,N/A,,Clear,100,2014-04-17 22:57:00
7:15 PM,46.4,32.0,57,30.60,10.0,East,9.2,-,N/A,,Clear,100,2014-04-17 23:15:00
7:36 PM,44.6,32.0,61,30.59,10.0,East,9.2,-,N/A,,Clear,100,2014-04-17 23:36:00
7:57 PM,44.6,32.0,61,30.60,10.0,ESE,9.2,-,N/A,,Clear,110,2014-04-17 23:57:00
8:15 PM,42.8,32.0,66,30.59,10.0,ESE,10.4,-,N/A,,Clear,120,2014-04-18 00:15:00
8:36 PM,42.8,32.0,66,30.60,10.0,ESE,8.1,-,N/A,,Clear,120,2014-04-18 00:36:00
8:57 PM,41.0,32.0,70,30.60,10.0,ESE,10.4,-,N/A,,Clear,110,2014-04-18 00:57:00
9:18 PM,41.0,32.0,70,30.60,10.0,ESE,9.2,-,N/A,,Clear,110,2014-04-18 01:18:00
9:36 PM,41.0,32.0,70,30.61,10.0,SE,6.9,-,N/A,,Clear,130,2014-04-18 01:36:00
9:57 PM,41.0,32.0,70,30.61,10.0,East,6.9,-,N/A,,Clear,100,2014-04-18 01:57:00
10:18 PM,39.2,32.0,75,30.62,10.0,ESE,8.1,-,N/A,,Scattered Clouds,110,2014-04-18 02:18:00
10:36 PM,39.2,32.0,75,30.61,10.0,ESE,4.6,-,N/A,,Mostly Cloudy,120,2014-04-18 02:36:00
10:57 PM,37.4,32.0,81,30.62,10.0,ESE,4.6,-,N/A,,Mostly Cloudy,110,2014-04-18 02:57:00
11:18 PM,37.4,32.0,81,30.62,10.0,ESE,3.5,-,N/A,,Scattered Clouds,120,2014-04-18 03:18:00
11:36 PM,35.6,32.0,87,30.62,10.0,Calm,Calm,-,N/A,,Clear,0,2014-04-18 03:36:00
11:57 PM,33.8,30.2,87,30.63,10.0,Calm,Calm,-,N/A,,Clear,0,2014-04-18 03:57:00